This demonstration page uses our WeatherBlox Daily Observations layout. Learn more.

Left ArrowRight Arrow

Hourly Observations for September 19, 2020

Temp ( °F °C ) Dew Point ( °F °C ) Humidity (%) Winds ( mph kmh ) Pressure ( in mb ) Visibility ( mi km ) Precip ( " mm )
12:54 am 00:54 Clear 55 12.8 47 8.3 74 74 S 8 13 30.24 1024 10 16.0934 0 0
1:54 am 01:54 Clear 55 12.8 48 8.9 77 77 S 8 13 30.23 1024 10 16.0934 0 0
2:54 am 02:54 Clear 57 13.9 49 9.4 74 74 S 9 15 30.22 1024 10 16.0934 0 0
3:54 am 03:54 Clear 55 12.8 49 9.4 80 80 S 8 13 30.22 1023 10 16.0934 0 0
4:54 am 04:54 Clear 54 12.2 49 9.4 83 83 S 6 9 30.21 1023 10 16.0934 0 0
5:54 am 05:54 Clear 53 11.7 48 8.9 83 83 S 6 9 30.22 1023 10 16.0934 0 0
6:54 am 06:54 Clear 53 11.7 48 8.9 83 83 SSW 5 7 30.22 1023 10 16.0934 0 0
7:54 am 07:54 Sunny 53 11.7 49 9.4 86 86 S 7 11 30.22 1024 9 14.48406 0 0
8:54 am 08:54 Sunny 57 13.9 51 10.6 81 81 S 12 19 30.22 1023 9 14.48406 0 0
9:54 am 09:54 Sunny 63 17.2 52 11.1 68 68 S 14 22 30.21 1023 9 14.48406 0 0
10:54 am 10:54 Sunny 68 20 52 11.1 57 57 S 17 28 30.21 1023 9 14.48406 0 0
11:54 am 11:54 Sunny 72 22.2 53 11.7 52 52 S 21 33 30.19 1022 9 14.48406 0 0
12:54 pm 12:54 Sunny 73 22.8 51 10.6 46 46 SSE 23 37 30.16 1021 9 14.48406 0 0
1:54 pm 13:54 Sunny 73 22.8 51 10.6 46 46 S 18 30 30.15 1021 8 12.87472 0 0
2:54 pm 14:54 Sunny 76 24.4 51 10.6 42 42 SSE 18 30 30.11 1020 8 12.87472 0 0
3:54 pm 15:54 Sunny 77 25 51 10.6 40 40 S 20 31 30.09 1019 8 12.87472 0 0
4:54 pm 16:54 Sunny 76 24.4 53 11.7 45 45 SSE 18 30 30.08 1019 8 12.87472 0 0
5:54 pm 17:54 Sunny 74 23.3 52 11.1 46 46 SSE 17 28 30.08 1019 8 12.87472 0 0
6:54 pm 18:54 Sunny 72 22.2 52 11.1 50 50 SSE 15 24 30.08 1019 8 12.87472 0 0
7:54 pm 19:54 Clear 68 20 52 11.1 57 57 SSE 12 19 30.09 1019 9 14.48406 0 0
8:54 pm 20:54 Clear 65 18.3 52 11.1 63 63 SSE 14 22 30.1 1019 10 16.0934 0 0
9:54 pm 21:54 Clear 65 18.3 52 11.1 63 63 SSE 16 26 30.11 1020 10 16.0934 0 0
10:54 pm 22:54 Clear 62 16.7 51 10.6 67 67 SSE 12 19 30.12 1020 10 16.0934 0 0
11:54 pm 23:54 Clear 60 15.6 51 10.6 72 72 SSE 12 19 30.13 1020 10 16.0934 0 0

Powered by AerisWeather